Torna al catalogo

JILIN-1 GAOFEN 07D 03 XING

AttivoScienzaSSO
NORAD 69544·PAYLOAD·🇨🇳 China
Questo nome del satellite non è ancora stato confermato da fonti ufficiali.

Lanciato Jun 15, 2026 da Jiuquan Satellite Launch Center

Loading…

Prossimi Passaggi (prossime 24 ore)

TLE

AggiornatoSource: Space-Track

Epoca: Sep 14, 2026, 10:58 UTC

1 69544U 26134G   26257.45706582  .00003525  00000-0  22279-3 0  9993
2 69544  97.6970 328.0022 0016568 328.5159  31.5077 15.09601528 13772

Traccia JILIN-1 GAOFEN 07D 03 XING in tempo reale con AllMySat

Download on the App Store